Time,TemperatureF,DewpointF,PressureIn,WindDirection,WindDirectionDegrees,WindSpeedMPH,WindSpeedGustMPH,Humidity,HourlyPrecipIn,Conditions,Clouds,dailyrainin,SoftwareType,DateUTC
2013-05-22 00:01:00,39.2,39.0,29.46,SW,225,0.0,2.0,99,0.00,,,0.06,meteohub,2013-05-22 07:01:00,
2013-05-22 00:06:00,39.4,39.2,29.46,SW,225,0.0,2.0,99,0.00,,,0.06,meteohub,2013-05-22 07:06:00,
2013-05-22 00:11:00,39.4,39.2,29.46,SW,225,1.0,2.0,99,0.00,,,0.06,meteohub,2013-05-22 07:11:00,
2013-05-22 00:16:00,39.6,39.4,29.46,SW,225,2.0,2.0,99,0.00,,,0.06,meteohub,2013-05-22 07:16:00,
2013-05-22 00:21:00,39.6,39.4,29.46,SW,225,2.0,2.0,99,0.00,,,0.06,meteohub,2013-05-22 07:21:00,
2013-05-22 00:26:00,39.6,39.4,29.46,SW,225,1.0,3.0,99,0.00,,,0.06,meteohub,2013-05-22 07:26:00,
2013-05-22 00:31:00,39.7,39.6,29.46,SW,225,2.0,3.0,99,0.00,,,0.06,meteohub,2013-05-22 07:31:00,
2013-05-22 00:36:00,39.7,39.6,29.46,SW,225,2.0,3.0,99,0.00,,,0.06,meteohub,2013-05-22 07:36:00,
2013-05-22 00:41:00,39.9,39.7,29.46,SW,225,0.0,3.0,99,0.00,,,0.06,meteohub,2013-05-22 07:41:00,
2013-05-22 00:46:00,39.9,39.7,29.46,South,180,2.0,3.0,99,0.00,,,0.06,meteohub,2013-05-22 07:46:00,
2013-05-22 00:51:00,39.9,39.7,29.46,SW,225,0.0,2.0,99,0.00,,,0.06,meteohub,2013-05-22 07:51:00,
2013-05-22 00:56:00,40.1,39.9,29.46,South,180,0.0,2.0,99,0.00,,,0.06,meteohub,2013-05-22 07:56:00,
2013-05-22 01:01:00,40.1,39.9,29.46,SW,225,0.0,2.0,99,0.00,,,0.06,meteohub,2013-05-22 08:01:00,
2013-05-22 01:06:00,40.1,39.9,29.46,West,270,0.0,2.0,99,0.00,,,0.06,meteohub,2013-05-22 08:06:00,
2013-05-22 01:11:00,40.1,39.9,29.46,SW,225,0.0,2.0,99,0.00,,,0.06,meteohub,2013-05-22 08:11:00,
2013-05-22 01:16:00,40.1,39.9,29.46,SW,225,2.0,2.0,99,0.00,,,0.06,meteohub,2013-05-22 08:16:00,
2013-05-22 01:21:00,40.3,40.1,29.45,SW,225,2.0,2.0,99,0.00,,,0.06,meteohub,2013-05-22 08:21:00,
2013-05-22 01:27:00,40.5,40.3,29.45,SW,225,1.0,2.0,99,0.00,,,0.06,meteohub,2013-05-22 08:27:00,
2013-05-22 01:32:00,40.5,40.3,29.45,South,180,2.0,2.0,99,0.01,,,0.07,meteohub,2013-05-22 08:32:00,
2013-05-22 01:37:00,40.5,40.3,29.46,South,180,2.0,2.0,99,0.01,,,0.07,meteohub,2013-05-22 08:37:00,
2013-05-22 01:42:00,40.6,40.5,29.45,SW,225,2.0,2.0,99,0.01,,,0.07,meteohub,2013-05-22 08:42:00,
2013-05-22 01:47:00,40.8,40.6,29.45,SW,225,1.0,2.0,99,0.01,,,0.07,meteohub,2013-05-22 08:47:00,
2013-05-22 01:52:00,40.8,40.6,29.45,South,180,3.0,3.0,99,0.01,,,0.07,meteohub,2013-05-22 08:52:00,
2013-05-22 01:57:00,40.8,40.6,29.45,SW,225,1.0,3.0,99,0.02,,,0.08,meteohub,2013-05-22 08:57:00,
2013-05-22 02:02:00,40.8,40.6,29.45,South,180,2.0,3.0,99,0.02,,,0.08,meteohub,2013-05-22 09:02:00,
2013-05-22 02:07:00,40.8,40.6,29.45,South,180,2.0,3.0,99,0.02,,,0.08,meteohub,2013-05-22 09:07:00,
2013-05-22 02:12:00,40.8,40.6,29.45,South,180,0.0,3.0,99,0.02,,,0.08,meteohub,2013-05-22 09:12:00,
2013-05-22 02:17:00,40.8,40.6,29.45,South,180,1.0,3.0,99,0.02,,,0.08,meteohub,2013-05-22 09:17:00,
2013-05-22 02:22:00,40.8,40.6,29.45,South,180,2.0,3.0,99,0.02,,,0.08,meteohub,2013-05-22 09:22:00,
2013-05-22 02:27:00,40.8,40.6,29.45,South,180,2.0,2.0,99,0.02,,,0.08,meteohub,2013-05-22 09:27:00,
2013-05-22 02:32:00,40.8,40.6,29.44,South,180,3.0,4.0,99,0.01,,,0.08,meteohub,2013-05-22 09:32:00,
2013-05-22 02:37:00,40.6,40.5,29.44,SW,225,2.0,4.0,99,0.01,,,0.08,meteohub,2013-05-22 09:37:00,
2013-05-22 02:42:00,40.3,40.1,29.44,SW,225,0.0,4.0,99,0.01,,,0.08,meteohub,2013-05-22 09:42:00,
2013-05-22 02:47:00,40.1,39.9,29.44,West,270,2.0,4.0,99,0.01,,,0.08,meteohub,2013-05-22 09:47:00,
2013-05-22 02:52:00,40.1,39.9,29.44,South,180,1.0,4.0,99,0.00,,,0.08,meteohub,2013-05-22 09:52:00,
2013-05-22 02:57:00,40.1,39.9,29.44,SW,225,3.0,4.0,99,0.00,,,0.08,meteohub,2013-05-22 09:57:00,
2013-05-22 03:02:00,40.1,39.9,29.44,SW,225,2.0,4.0,99,0.00,,,0.08,meteohub,2013-05-22 10:02:00,
2013-05-22 03:07:00,40.1,39.9,29.44,SW,225,2.0,4.0,99,0.00,,,0.08,meteohub,2013-05-22 10:07:00,
2013-05-22 03:12:00,40.3,40.1,29.44,South,180,2.0,4.0,99,0.00,,,0.08,meteohub,2013-05-22 10:12:00,
2013-05-22 03:17:00,40.3,40.1,29.44,South,180,2.0,3.0,99,0.00,,,0.08,meteohub,2013-05-22 10:17:00,
2013-05-22 03:22:00,40.3,40.1,29.44,SW,225,2.0,2.0,99,0.00,,,0.08,meteohub,2013-05-22 10:22:00,
2013-05-22 03:27:00,40.3,40.1,29.44,SE,135,1.0,3.0,99,0.00,,,0.08,meteohub,2013-05-22 10:27:00,
2013-05-22 03:32:00,40.3,40.1,29.44,SW,225,2.0,3.0,99,0.00,,,0.08,meteohub,2013-05-22 10:32:00,
2013-05-22 03:37:00,40.5,40.3,29.44,SW,225,0.0,3.0,99,0.00,,,0.08,meteohub,2013-05-22 10:37:00,
2013-05-22 03:42:00,40.5,40.3,29.44,South,180,0.0,3.0,99,0.00,,,0.08,meteohub,2013-05-22 10:42:00,
2013-05-22 03:47:00,40.6,40.5,29.44,South,180,0.0,3.0,99,0.00,,,0.08,meteohub,2013-05-22 10:47:00,
2013-05-22 03:52:00,40.6,40.5,29.44,SW,225,2.0,3.0,99,0.00,,,0.08,meteohub,2013-05-22 10:52:00,
2013-05-22 03:57:00,40.8,40.6,29.44,South,180,2.0,3.0,99,0.00,,,0.08,meteohub,2013-05-22 10:57:00,
2013-05-22 04:03:00,40.6,40.5,29.44,SSW,203,2.0,3.0,99,0.00,,,0.08,meteohub,2013-05-22 11:03:00,
2013-05-22 04:08:00,40.6,40.5,29.44,SW,225,2.0,2.0,99,0.00,,,0.08,meteohub,2013-05-22 11:08:00,
2013-05-22 04:13:00,40.6,40.5,29.44,South,180,1.0,2.0,99,0.00,,,0.08,meteohub,2013-05-22 11:13:00,
2013-05-22 04:18:00,40.5,40.3,29.43,SE,135,0.0,2.0,99,0.00,,,0.08,meteohub,2013-05-22 11:18:00,
2013-05-22 04:24:00,40.5,40.3,29.44,South,180,1.0,2.0,99,0.00,,,0.08,meteohub,2013-05-22 11:24:00,
2013-05-22 04:29:00,40.3,40.1,29.44,SE,135,0.0,2.0,99,0.00,,,0.08,meteohub,2013-05-22 11:29:00,
2013-05-22 04:34:00,40.3,40.1,29.44,South,180,0.0,2.0,99,0.00,,,0.08,meteohub,2013-05-22 11:34:00,
2013-05-22 04:39:00,40.3,40.1,29.44,South,180,1.0,2.0,99,0.00,,,0.08,meteohub,2013-05-22 11:39:00,
2013-05-22 04:44:00,40.1,39.9,29.44,SW,225,3.0,3.0,99,0.00,,,0.08,meteohub,2013-05-22 11:44:00,
2013-05-22 04:49:00,39.9,39.7,29.44,South,180,2.0,2.0,99,0.00,,,0.08,meteohub,2013-05-22 11:49:00,
2013-05-22 04:54:00,39.7,39.6,29.44,SW,225,2.0,4.0,99,0.00,,,0.08,meteohub,2013-05-22 11:54:00,
2013-05-22 04:59:00,39.7,39.6,29.44,SW,225,2.0,4.0,99,0.01,,,0.08,meteohub,2013-05-22 11:59:00,
2013-05-22 05:04:00,39.6,39.4,29.43,SW,225,2.0,4.0,99,0.01,,,0.09,meteohub,2013-05-22 12:04:00,
2013-05-22 05:09:00,39.6,39.4,29.44,South,180,2.0,3.0,99,0.01,,,0.09,meteohub,2013-05-22 12:09:00,
2013-05-22 05:14:00,39.6,39.4,29.44,SE,135,2.0,3.0,99,0.01,,,0.09,meteohub,2013-05-22 12:14:00,
2013-05-22 05:19:00,39.4,39.2,29.44,SW,225,2.0,2.0,99,0.01,,,0.09,meteohub,2013-05-22 12:19:00,
2013-05-22 05:24:00,39.2,39.0,29.43,SE,135,2.0,4.0,99,0.01,,,0.09,meteohub,2013-05-22 12:24:00,
2013-05-22 05:29:00,39.2,39.0,29.44,SE,135,3.0,4.0,99,0.01,,,0.09,meteohub,2013-05-22 12:29:00,
2013-05-22 05:34:00,39.2,39.0,29.43,SW,225,1.0,4.0,99,0.01,,,0.09,meteohub,2013-05-22 12:34:00,
2013-05-22 05:39:00,39.2,39.0,29.44,NE,45,2.0,3.0,99,0.01,,,0.09,meteohub,2013-05-22 12:39:00,
2013-05-22 05:44:00,39.2,39.0,29.44,West,270,1.0,3.0,99,0.01,,,0.09,meteohub,2013-05-22 12:44:00,
2013-05-22 05:49:00,39.2,39.0,29.43,South,180,1.0,3.0,99,0.01,,,0.09,meteohub,2013-05-22 12:49:00,
2013-05-22 05:54:00,39.2,39.0,29.43,South,180,2.0,5.0,99,0.01,,,0.09,meteohub,2013-05-22 12:54:00,
2013-05-22 05:59:00,39.4,39.2,29.43,South,180,3.0,5.0,99,0.00,,,0.09,meteohub,2013-05-22 12:59:00,
2013-05-22 06:05:00,39.4,39.2,29.43,SE,135,2.0,5.0,99,0.01,,,0.11,meteohub,2013-05-22 13:05:00,
2013-05-22 06:10:00,39.4,39.2,29.43,West,270,0.0,3.0,99,0.01,,,0.11,meteohub,2013-05-22 13:10:00,
2013-05-22 06:15:00,39.6,39.4,29.43,SW,225,2.0,3.0,99,0.01,,,0.11,meteohub,2013-05-22 13:15:00,
2013-05-22 06:20:00,39.7,39.6,29.42,NW,315,2.0,3.0,99,0.01,,,0.11,meteohub,2013-05-22 13:20:00,
2013-05-22 06:25:00,39.9,39.7,29.42,SE,135,2.0,2.0,99,0.01,,,0.11,meteohub,2013-05-22 13:25:00,
2013-05-22 06:30:00,39.9,39.7,29.42,SW,225,3.0,3.0,99,0.01,,,0.11,meteohub,2013-05-22 13:30:00,
2013-05-22 06:35:00,40.1,39.9,29.43,SW,225,2.0,4.0,99,0.01,,,0.11,meteohub,2013-05-22 13:35:00,
2013-05-22 06:40:00,40.3,40.1,29.43,South,180,4.0,4.0,99,0.01,,,0.11,meteohub,2013-05-22 13:40:00,
2013-05-22 06:45:00,40.3,40.1,29.43,South,180,2.0,4.0,99,0.01,,,0.11,meteohub,2013-05-22 13:45:00,
2013-05-22 06:50:00,40.3,40.1,29.42,SE,135,2.0,4.0,99,0.01,,,0.11,meteohub,2013-05-22 13:50:00,
2013-05-22 06:55:00,40.3,40.1,29.42,SE,135,4.0,5.0,99,0.00,,,0.11,meteohub,2013-05-22 13:55:00,
2013-05-22 07:00:00,40.5,40.3,29.43,SE,135,1.0,5.0,99,0.00,,,0.11,meteohub,2013-05-22 14:00:00,
2013-05-22 07:05:00,40.6,40.5,29.43,SW,225,3.0,5.0,99,0.00,,,0.11,meteohub,2013-05-22 14:05:00,
2013-05-22 07:10:00,40.6,40.5,29.43,SW,225,2.0,4.0,99,0.00,,,0.11,meteohub,2013-05-22 14:10:00,
2013-05-22 07:15:00,40.8,40.6,29.42,SE,135,2.0,3.0,99,0.00,,,0.11,meteohub,2013-05-22 14:15:00,
2013-05-22 07:20:00,41.0,40.8,29.42,South,180,2.0,4.0,99,0.00,,,0.11,meteohub,2013-05-22 14:20:00,
2013-05-22 07:25:00,41.2,41.0,29.42,SW,225,3.0,4.0,99,0.00,,,0.11,meteohub,2013-05-22 14:25:00,
2013-05-22 07:30:00,41.2,41.0,29.42,South,180,4.0,4.0,99,0.00,,,0.11,meteohub,2013-05-22 14:30:00,
2013-05-22 07:35:00,41.2,41.0,29.42,South,180,3.0,5.0,99,0.00,,,0.11,meteohub,2013-05-22 14:35:00,
2013-05-22 07:40:00,41.2,41.0,29.42,South,180,2.0,8.0,99,0.00,,,0.11,meteohub,2013-05-22 14:40:00,
2013-05-22 07:46:00,41.4,41.2,29.42,South,180,2.0,8.0,99,0.00,,,0.11,meteohub,2013-05-22 14:46:00,
2013-05-22 07:51:00,41.4,41.2,29.42,NW,315,2.0,8.0,99,0.00,,,0.11,meteohub,2013-05-22 14:51:00,
2013-05-22 07:56:00,41.5,41.4,29.42,SW,225,4.0,7.0,99,0.00,,,0.11,meteohub,2013-05-22 14:56:00,
2013-05-22 08:01:00,41.5,41.4,29.42,North,0,3.0,7.0,99,0.00,,,0.11,meteohub,2013-05-22 15:01:00,
2013-05-22 08:06:00,41.7,41.5,29.42,NE,45,0.0,7.0,99,0.00,,,0.11,meteohub,2013-05-22 15:06:00,
2013-05-22 08:11:00,41.7,41.5,29.42,SW,225,2.0,4.0,99,0.00,,,0.11,meteohub,2013-05-22 15:11:00,
2013-05-22 08:16:00,41.7,41.5,29.42,SE,135,2.0,3.0,99,0.00,,,0.11,meteohub,2013-05-22 15:16:00,
2013-05-22 08:21:00,41.9,41.7,29.43,East,90,4.0,5.0,99,0.00,,,0.11,meteohub,2013-05-22 15:21:00,
2013-05-22 08:26:00,41.9,41.7,29.42,NW,315,3.0,5.0,99,0.00,,,0.11,meteohub,2013-05-22 15:26:00,
2013-05-22 08:31:00,41.9,41.7,29.42,SW,225,2.0,4.0,99,0.00,,,0.11,meteohub,2013-05-22 15:31:00,
2013-05-22 08:36:00,41.9,41.7,29.42,South,180,8.0,8.0,99,0.00,,,0.11,meteohub,2013-05-22 15:36:00,
2013-05-22 08:41:00,41.9,41.7,29.42,SW,225,2.0,8.0,99,0.00,,,0.11,meteohub,2013-05-22 15:41:00,
2013-05-22 08:46:00,42.3,42.1,29.42,SW,225,2.0,9.0,99,0.00,,,0.11,meteohub,2013-05-22 15:46:00,
2013-05-22 08:51:00,42.4,42.3,29.42,West,270,4.0,9.0,99,0.00,,,0.11,meteohub,2013-05-22 15:51:00,
2013-05-22 08:56:00,42.4,42.3,29.42,NW,315,2.0,9.0,99,0.00,,,0.11,meteohub,2013-05-22 15:56:00,
2013-05-22 09:01:00,42.6,42.4,29.42,SW,225,2.0,7.0,99,0.00,,,0.11,meteohub,2013-05-22 16:01:00,
2013-05-22 09:06:00,42.8,42.6,29.42,NW,315,2.0,7.0,99,0.00,,,0.11,meteohub,2013-05-22 16:06:00,
2013-05-22 09:11:00,43.0,42.8,29.42,NE,45,2.0,5.0,99,0.00,,,0.11,meteohub,2013-05-22 16:11:00,
2013-05-22 09:16:00,43.0,42.8,29.42,South,180,4.0,8.0,99,0.00,,,0.11,meteohub,2013-05-22 16:16:00,
2013-05-22 09:21:00,43.3,43.2,29.42,SW,225,3.0,8.0,99,0.00,,,0.11,meteohub,2013-05-22 16:21:00,
2013-05-22 09:26:00,43.5,43.3,29.41,South,180,2.0,8.0,99,0.00,,,0.11,meteohub,2013-05-22 16:26:00,
2013-05-22 09:32:00,43.7,43.2,29.41,South,180,2.0,5.0,98,0.00,,,0.11,meteohub,2013-05-22 16:32:00,
2013-05-22 09:37:00,43.7,43.2,29.41,West,270,2.0,5.0,98,0.00,,,0.11,meteohub,2013-05-22 16:37:00,
2013-05-22 09:42:00,43.9,43.3,29.41,SW,225,4.0,8.0,98,0.00,,,0.11,meteohub,2013-05-22 16:42:00,
2013-05-22 09:47:00,44.2,43.7,29.41,NE,45,4.0,8.0,98,0.00,,,0.11,meteohub,2013-05-22 16:47:00,
2013-05-22 09:52:00,44.4,43.9,29.41,West,270,2.0,8.0,98,0.00,,,0.11,meteohub,2013-05-22 16:52:00,
2013-05-22 09:57:00,44.6,43.9,29.41,South,180,2.0,8.0,97,0.00,,,0.11,meteohub,2013-05-22 16:57:00,
2013-05-22 10:02:00,45.0,44.2,29.41,North,0,2.0,7.0,97,0.00,,,0.11,meteohub,2013-05-22 17:02:00,
2013-05-22 10:07:00,45.3,44.2,29.41,SE,135,8.0,8.0,96,0.00,,,0.11,meteohub,2013-05-22 17:07:00,
2013-05-22 10:12:00,45.5,44.4,29.40,East,90,4.0,8.0,96,0.00,,,0.11,meteohub,2013-05-22 17:12:00,
2013-05-22 10:17:00,46.0,44.4,29.40,East,90,4.0,8.0,94,0.00,,,0.11,meteohub,2013-05-22 17:17:00,
2013-05-22 10:22:00,46.6,45.0,29.41,NE,45,4.0,8.0,94,0.00,,,0.11,meteohub,2013-05-22 17:22:00,
2013-05-22 10:27:00,47.3,45.7,29.41,SW,225,4.0,7.0,94,0.00,,,0.11,meteohub,2013-05-22 17:27:00,
2013-05-22 10:32:00,47.7,45.5,29.40,East,90,4.0,8.0,92,0.00,,,0.11,meteohub,2013-05-22 17:32:00,
2013-05-22 10:37:00,47.8,45.3,29.40,NE,45,4.0,8.0,91,0.00,,,0.11,meteohub,2013-05-22 17:37:00,
2013-05-22 10:42:00,47.8,45.0,29.40,SW,225,8.0,8.0,90,0.00,,,0.11,meteohub,2013-05-22 17:42:00,
2013-05-22 10:47:00,47.7,45.0,29.40,East,90,4.0,11.0,90,0.00,,,0.11,meteohub,2013-05-22 17:47:00,
2013-05-22 10:52:00,47.7,45.0,29.40,NW,315,2.0,11.0,90,0.00,,,0.11,meteohub,2013-05-22 17:52:00,
2013-05-22 10:57:00,47.8,45.0,29.40,South,180,3.0,11.0,90,0.00,,,0.11,meteohub,2013-05-22 17:57:00,
2013-05-22 11:02:00,48.0,45.5,29.40,NE,45,4.0,8.0,91,0.00,,,0.11,meteohub,2013-05-22 18:02:00,
2013-05-22 11:07:00,48.0,45.1,29.40,NE,45,6.0,6.0,90,0.00,,,0.11,meteohub,2013-05-22 18:07:00,
2013-05-22 11:12:00,48.4,45.5,29.40,SSW,203,2.0,8.0,90,0.00,,,0.11,meteohub,2013-05-22 18:12:00,
2013-05-22 11:17:00,48.9,46.4,29.40,North,0,4.0,8.0,91,0.00,,,0.11,meteohub,2013-05-22 18:17:00,
2013-05-22 11:22:00,49.3,46.4,29.40,North,0,4.0,8.0,90,0.00,,,0.11,meteohub,2013-05-22 18:22:00,
2013-05-22 11:27:00,50.0,46.9,29.40,SSW,203,2.0,9.0,89,0.00,,,0.11,meteohub,2013-05-22 18:27:00,
2013-05-22 11:32:00,50.5,47.1,29.40,South,180,4.0,9.0,88,0.00,,,0.11,meteohub,2013-05-22 18:32:00,
2013-05-22 11:37:00,50.4,46.4,29.40,SW,225,2.0,9.0,86,0.00,,,0.11,meteohub,2013-05-22 18:37:00,
2013-05-22 11:42:00,50.4,46.4,29.40,SW,225,4.0,8.0,86,0.00,,,0.11,meteohub,2013-05-22 18:42:00,
2013-05-22 11:47:00,50.5,46.8,29.40,SW,225,3.0,8.0,87,0.00,,,0.11,meteohub,2013-05-22 18:47:00,
2013-05-22 11:52:00,51.3,46.9,29.41,South,180,5.0,8.0,85,0.00,,,0.11,meteohub,2013-05-22 18:52:00,
2013-05-22 11:57:00,51.4,46.2,29.40,SE,135,4.0,7.0,82,0.00,,,0.11,meteohub,2013-05-22 18:57:00,
2013-05-22 12:02:00,51.1,45.9,29.40,SW,225,4.0,7.0,82,0.00,,,0.11,meteohub,2013-05-22 19:02:00,
2013-05-22 12:07:00,51.1,46.0,29.41,SW,225,3.0,7.0,83,0.00,,,0.11,meteohub,2013-05-22 19:07:00,
2013-05-22 12:12:00,50.9,46.2,29.40,SW,225,4.0,7.0,84,0.00,,,0.11,meteohub,2013-05-22 19:12:00,
2013-05-22 12:17:00,50.5,46.2,29.40,SE,135,2.0,7.0,85,0.00,,,0.11,meteohub,2013-05-22 19:17:00,
2013-05-22 12:22:00,50.9,46.2,29.40,SW,225,2.0,6.0,84,0.00,,,0.11,meteohub,2013-05-22 19:22:00,
2013-05-22 12:27:00,51.1,46.4,29.41,SW,225,3.0,6.0,84,0.00,,,0.11,meteohub,2013-05-22 19:27:00,
2013-05-22 12:32:00,51.4,47.1,29.40,NE,45,2.0,7.0,85,0.00,,,0.11,meteohub,2013-05-22 19:32:00,
2013-05-22 12:37:00,51.3,46.2,29.41,SW,225,2.0,7.0,83,0.00,,,0.11,meteohub,2013-05-22 19:37:00,
2013-05-22 12:42:00,51.6,46.9,29.40,SE,135,6.0,9.0,84,0.00,,,0.11,meteohub,2013-05-22 19:42:00,
2013-05-22 12:47:00,51.4,46.4,29.40,South,180,6.0,9.0,83,0.00,,,0.11,meteohub,2013-05-22 19:47:00,
2013-05-22 12:52:00,51.3,46.9,29.40,South,180,2.0,6.0,85,0.00,,,0.11,meteohub,2013-05-22 19:52:00,
2013-05-22 12:57:00,51.4,47.5,29.40,West,270,3.0,6.0,86,0.00,,,0.11,meteohub,2013-05-22 19:57:00,
2013-05-22 13:02:00,51.8,47.1,29.40,SW,225,4.0,9.0,84,0.00,,,0.11,meteohub,2013-05-22 20:02:00,
2013-05-22 13:07:00,51.8,47.5,29.41,SW,225,5.0,9.0,85,0.00,,,0.11,meteohub,2013-05-22 20:07:00,
2013-05-22 13:12:00,51.4,47.1,29.41,SW,225,4.0,9.0,85,0.00,,,0.11,meteohub,2013-05-22 20:12:00,
2013-05-22 13:17:00,50.9,46.2,29.40,South,180,4.0,9.0,84,0.00,,,0.11,meteohub,2013-05-22 20:17:00,
2013-05-22 13:22:00,50.7,46.9,29.41,West,270,2.0,5.0,87,0.01,,,0.12,meteohub,2013-05-22 20:22:00,
2013-05-22 13:27:00,50.9,47.1,29.41,SE,135,4.0,5.0,87,0.01,,,0.12,meteohub,2013-05-22 20:27:00,
2013-05-22 13:32:00,50.9,47.5,29.40,South,180,2.0,5.0,88,0.01,,,0.12,meteohub,2013-05-22 20:32:00,
2013-05-22 13:37:00,51.1,47.7,29.40,SW,225,2.0,4.0,88,0.02,,,0.13,meteohub,2013-05-22 20:37:00,
2013-05-22 13:42:00,51.1,47.7,29.40,SW,225,2.0,4.0,88,0.02,,,0.13,meteohub,2013-05-22 20:42:00,
2013-05-22 13:47:00,51.1,47.7,29.40,SW,225,4.0,4.0,88,0.02,,,0.13,meteohub,2013-05-22 20:47:00,
2013-05-22 13:52:00,51.3,48.2,29.40,SW,225,3.0,7.0,89,0.04,,,0.14,meteohub,2013-05-22 20:52:00,
2013-05-22 13:57:00,51.8,48.9,29.40,South,180,2.0,7.0,90,0.04,,,0.14,meteohub,2013-05-22 20:57:00,
2013-05-22 14:02:00,52.0,48.9,29.40,SW,225,2.0,4.0,89,0.04,,,0.14,meteohub,2013-05-22 21:02:00,
2013-05-22 14:07:00,52.2,48.4,29.40,South,180,0.0,3.0,87,0.04,,,0.14,meteohub,2013-05-22 21:07:00,
2013-05-22 14:12:00,53.8,49.6,29.40,SW,225,2.0,3.0,86,0.04,,,0.14,meteohub,2013-05-22 21:12:00,
2013-05-22 14:17:00,54.3,49.8,29.40,West,270,2.0,6.0,85,0.02,,,0.14,meteohub,2013-05-22 21:17:00,
2013-05-22 14:22:00,54.1,49.1,29.39,West,270,2.0,6.0,83,0.02,,,0.14,meteohub,2013-05-22 21:22:00,
2013-05-22 14:27:00,54.0,48.6,29.40,West,270,3.0,4.0,82,0.02,,,0.14,meteohub,2013-05-22 21:27:00,
2013-05-22 14:32:00,54.0,48.6,29.39,SW,225,3.0,3.0,82,0.01,,,0.14,meteohub,2013-05-22 21:32:00,
2013-05-22 14:37:00,53.2,47.5,29.39,West,270,4.0,4.0,81,0.01,,,0.14,meteohub,2013-05-22 21:37:00,
2013-05-22 14:42:00,52.0,46.6,29.40,SW,225,4.0,4.0,82,0.01,,,0.14,meteohub,2013-05-22 21:42:00,
2013-05-22 14:47:00,51.3,47.3,29.40,South,180,2.0,4.0,86,0.01,,,0.15,meteohub,2013-05-22 21:47:00,
2013-05-22 14:52:00,52.3,49.3,29.40,SW,225,2.0,4.0,89,0.01,,,0.15,meteohub,2013-05-22 21:52:00,
2013-05-22 14:57:00,53.4,50.0,29.41,South,180,3.0,4.0,88,0.01,,,0.15,meteohub,2013-05-22 21:57:00,
2013-05-22 15:02:00,53.4,50.0,29.41,South,180,3.0,4.0,88,0.01,,,0.15,meteohub,2013-05-22 22:02:00,
2013-05-22 15:07:00,53.2,49.1,29.40,South,180,4.0,4.0,86,0.01,,,0.15,meteohub,2013-05-22 22:07:00,
2013-05-22 15:12:00,53.2,49.1,29.40,South,180,4.0,4.0,86,0.01,,,0.15,meteohub,2013-05-22 22:12:00,
2013-05-22 15:17:00,53.2,49.1,29.40,South,180,4.0,4.0,86,0.01,,,0.15,meteohub,2013-05-22 22:17:00,
2013-05-22 15:22:00,52.2,47.8,29.40,SW,225,9.0,9.0,85,0.01,,,0.15,meteohub,2013-05-22 22:22:00,
2013-05-22 15:27:00,51.4,47.7,29.41,SW,225,6.0,11.0,87,0.04,,,0.18,meteohub,2013-05-22 22:27:00,
2013-05-22 15:32:00,51.8,48.9,29.41,SW,225,3.0,11.0,90,0.04,,,0.18,meteohub,2013-05-22 22:32:00,
2013-05-22 15:37:00,51.6,48.2,29.41,SW,225,6.0,11.0,88,0.04,,,0.18,meteohub,2013-05-22 22:37:00,
2013-05-22 15:42:00,51.1,48.2,29.40,SW,225,5.0,8.0,90,0.04,,,0.18,meteohub,2013-05-22 22:42:00,
2013-05-22 15:47:00,51.4,48.9,29.40,SW,225,2.0,6.0,91,0.02,,,0.18,meteohub,2013-05-22 22:47:00,
2013-05-22 15:52:00,52.3,49.5,29.41,West,270,6.0,6.0,90,0.02,,,0.18,meteohub,2013-05-22 22:52:00,
2013-05-22 15:57:00,52.9,50.0,29.41,SW,225,4.0,8.0,90,0.02,,,0.18,meteohub,2013-05-22 22:57:00,
2013-05-22 16:02:00,52.2,48.7,29.41,SW,225,5.0,8.0,88,0.02,,,0.18,meteohub,2013-05-22 23:02:00,
2013-05-22 16:07:00,51.8,48.4,29.41,SW,225,4.0,6.0,88,0.04,,,0.19,meteohub,2013-05-22 23:07:00,
2013-05-22 16:12:00,50.7,46.8,29.41,SW,225,11.0,11.0,86,0.04,,,0.19,meteohub,2013-05-22 23:12:00,
2013-05-22 16:17:00,49.8,46.9,29.41,South,180,8.0,11.0,90,0.04,,,0.20,meteohub,2013-05-22 23:17:00,
2013-05-22 16:22:00,49.6,47.1,29.42,SW,225,8.0,11.0,91,0.05,,,0.21,meteohub,2013-05-22 23:22:00,
2013-05-22 16:27:00,49.8,47.7,29.41,SW,225,6.0,11.0,92,0.04,,,0.21,meteohub,2013-05-22 23:27:00,
2013-05-22 16:32:00,50.0,48.0,29.42,SW,225,7.0,11.0,93,0.04,,,0.21,meteohub,2013-05-22 23:32:00,
2013-05-22 16:37:00,50.0,48.4,29.42,SW,225,6.0,10.0,94,0.04,,,0.21,meteohub,2013-05-22 23:37:00,
2013-05-22 16:42:00,50.0,48.0,29.42,SW,225,5.0,8.0,93,0.04,,,0.21,meteohub,2013-05-22 23:42:00,
2013-05-22 16:47:00,50.0,48.4,29.42,South,180,3.0,8.0,94,0.05,,,0.22,meteohub,2013-05-22 23:47:00,
2013-05-22 16:52:00,50.0,48.4,29.42,SW,225,4.0,7.0,94,0.05,,,0.22,meteohub,2013-05-22 23:52:00,
2013-05-22 16:57:00,49.6,47.7,29.42,SW,225,6.0,7.0,93,0.05,,,0.22,meteohub,2013-05-22 23:57:00,
2013-05-22 17:02:00,49.5,47.3,29.42,SW,225,6.0,8.0,92,0.06,,,0.24,meteohub,2013-05-23 00:02:00,
2013-05-22 17:07:00,49.5,47.5,29.42,South,180,6.0,8.0,93,0.05,,,0.00,meteohub,2013-05-23 00:07:00,
2013-05-22 17:12:00,49.3,47.1,29.42,SW,225,7.0,7.0,92,0.04,,,0.00,meteohub,2013-05-23 00:12:00,
2013-05-22 17:17:00,49.5,47.8,29.42,SW,225,4.0,7.0,94,0.04,,,0.00,meteohub,2013-05-23 00:17:00,
2013-05-22 17:22:00,50.0,48.0,29.42,SW,225,5.0,7.0,93,0.02,,,0.00,meteohub,2013-05-23 00:22:00,
2013-05-22 17:27:00,50.4,48.7,29.42,SW,225,2.0,7.0,94,0.02,,,0.00,meteohub,2013-05-23 00:27:00,
2013-05-22 17:32:00,50.5,48.6,29.42,SW,225,2.0,5.0,93,0.02,,,0.00,meteohub,2013-05-23 00:32:00,
2013-05-22 17:37:00,50.2,47.3,29.42,South,180,2.0,5.0,90,0.02,,,0.00,meteohub,2013-05-23 00:37:00,
2013-05-22 17:42:00,50.2,48.0,29.42,SW,225,2.0,11.0,92,0.02,,,0.01,meteohub,2013-05-23 00:42:00,
2013-05-22 17:47:00,50.4,47.8,29.42,SW,225,7.0,11.0,91,0.02,,,0.01,meteohub,2013-05-23 00:47:00,
2013-05-22 17:52:00,50.0,47.1,29.42,South,180,8.0,8.0,90,0.02,,,0.01,meteohub,2013-05-23 00:52:00,
2013-05-22 17:57:00,49.3,46.8,29.42,SW,225,5.0,8.0,91,0.01,,,0.01,meteohub,2013-05-23 00:57:00,
2013-05-22 18:02:00,48.6,46.0,29.42,SW,225,8.0,15.0,91,0.01,,,0.01,meteohub,2013-05-23 01:02:00,
2013-05-22 18:07:00,48.2,46.0,29.42,SW,225,6.0,15.0,92,0.02,,,0.02,meteohub,2013-05-23 01:07:00,
2013-05-22 18:12:00,47.8,45.3,29.43,South,180,13.0,15.0,91,0.02,,,0.02,meteohub,2013-05-23 01:12:00,
2013-05-22 18:17:00,47.7,45.5,29.43,SW,225,9.0,13.0,92,0.02,,,0.02,meteohub,2013-05-23 01:17:00,
2013-05-22 18:22:00,47.7,45.7,29.43,SW,225,6.0,13.0,93,0.02,,,0.02,meteohub,2013-05-23 01:22:00,
2013-05-22 18:27:00,47.5,45.5,29.43,SW,225,7.0,13.0,93,0.02,,,0.02,meteohub,2013-05-23 01:27:00,
2013-05-22 18:32:00,47.3,45.3,29.43,SW,225,4.0,11.0,93,0.02,,,0.02,meteohub,2013-05-23 01:32:00,
2013-05-22 18:37:00,47.5,45.5,29.43,SW,225,4.0,8.0,93,0.04,,,0.04,meteohub,2013-05-23 01:37:00,
2013-05-22 18:42:00,47.5,45.3,29.43,SW,225,3.0,8.0,92,0.02,,,0.04,meteohub,2013-05-23 01:42:00,
2013-05-22 18:47:00,47.5,45.3,29.43,SW,225,6.0,8.0,92,0.02,,,0.04,meteohub,2013-05-23 01:47:00,
2013-05-22 18:52:00,47.7,45.7,29.43,South,180,2.0,8.0,93,0.02,,,0.04,meteohub,2013-05-23 01:52:00,
2013-05-22 18:57:00,47.7,46.0,29.43,SW,225,2.0,7.0,94,0.02,,,0.04,meteohub,2013-05-23 01:57:00,
2013-05-22 19:02:00,47.7,46.0,29.43,SW,225,2.0,7.0,94,0.02,,,0.04,meteohub,2013-05-23 02:02:00,
2013-05-22 19:07:00,47.8,46.2,29.43,SW,225,2.0,7.0,94,0.01,,,0.04,meteohub,2013-05-23 02:07:00,
2013-05-22 19:12:00,47.7,46.0,29.44,SW,225,4.0,6.0,94,0.01,,,0.04,meteohub,2013-05-23 02:12:00,
2013-05-22 19:17:00,47.7,46.0,29.44,SW,225,4.0,9.0,94,0.01,,,0.04,meteohub,2013-05-23 02:17:00,
2013-05-22 19:22:00,47.5,45.9,29.44,SW,225,2.0,9.0,94,0.01,,,0.04,meteohub,2013-05-23 02:22:00,
2013-05-22 19:27:00,47.5,46.0,29.44,SW,225,2.0,7.0,95,0.01,,,0.04,meteohub,2013-05-23 02:27:00,
2013-05-22 19:32:00,47.5,46.0,29.44,SW,225,0.0,4.0,95,0.00,,,0.04,meteohub,2013-05-23 02:32:00,
2013-05-22 19:37:00,47.3,45.9,29.44,SW,225,2.0,2.0,95,0.00,,,0.04,meteohub,2013-05-23 02:37:00,
2013-05-22 19:42:00,47.3,45.9,29.44,SW,225,2.0,2.0,95,0.00,,,0.04,meteohub,2013-05-23 02:42:00,
2013-05-22 19:47:00,47.1,45.7,29.44,SW,225,0.0,4.0,95,0.00,,,0.04,meteohub,2013-05-23 02:47:00,
2013-05-22 19:52:00,47.1,46.0,29.44,SW,225,2.0,4.0,96,0.00,,,0.04,meteohub,2013-05-23 02:52:00,
2013-05-22 19:57:00,47.1,46.0,29.44,SW,225,0.0,2.0,96,0.00,,,0.04,meteohub,2013-05-23 02:57:00,
2013-05-22 20:02:00,47.1,46.0,29.44,SW,225,0.0,2.0,96,0.00,,,0.04,meteohub,2013-05-23 03:02:00,
2013-05-22 20:07:00,46.9,45.9,29.44,SW,225,0.0,2.0,96,0.01,,,0.05,meteohub,2013-05-23 03:07:00,
2013-05-22 20:12:00,46.9,45.9,29.44,SW,225,1.0,1.0,96,0.01,,,0.05,meteohub,2013-05-23 03:12:00,
2013-05-22 20:17:00,46.8,45.7,29.44,SW,225,1.0,1.0,96,0.01,,,0.05,meteohub,2013-05-23 03:17:00,
2013-05-22 20:22:00,46.8,46.0,29.44,SW,225,3.0,3.0,97,0.01,,,0.05,meteohub,2013-05-23 03:22:00,
2013-05-22 20:27:00,46.8,46.0,29.44,SW,225,3.0,3.0,97,0.01,,,0.05,meteohub,2013-05-23 03:27:00,
2013-05-22 20:32:00,46.6,46.0,29.44,SW,225,2.0,3.0,98,0.01,,,0.05,meteohub,2013-05-23 03:32:00,
2013-05-22 20:37:00,46.6,46.0,29.44,SW,225,2.0,3.0,98,0.01,,,0.05,meteohub,2013-05-23 03:37:00,
2013-05-22 20:42:00,46.4,45.9,29.44,SW,225,2.0,3.0,98,0.01,,,0.05,meteohub,2013-05-23 03:42:00,
2013-05-22 20:47:00,46.4,45.9,29.44,SW,225,1.0,2.0,98,0.01,,,0.05,meteohub,2013-05-23 03:47:00,
2013-05-22 20:52:00,46.4,45.9,29.44,SW,225,0.0,2.0,98,0.01,,,0.05,meteohub,2013-05-23 03:52:00,
2013-05-22 20:57:00,46.4,45.9,29.44,SW,225,1.0,2.0,98,0.02,,,0.06,meteohub,2013-05-23 03:57:00,
2013-05-22 21:01:00,46.2,45.7,29.44,SW,225,0.0,2.0,98,0.02,,,0.06,meteohub,2013-05-23 04:01:00,
2013-05-22 21:03:00,46.2,45.7,29.44,SW,225,0.0,2.0,98,0.02,,,0.06,meteohub,2013-05-23 04:03:00,
2013-05-22 21:05:00,46.2,45.7,29.44,SW,225,0.0,2.0,98,0.01,,,0.06,meteohub,2013-05-23 04:05:00,
2013-05-22 21:09:00,46.2,46.0,29.44,SW,225,2.0,2.0,99,0.01,,,0.06,meteohub,2013-05-23 04:09:00,
2013-05-22 21:15:00,46.2,46.0,29.44,South,180,0.0,2.0,99,0.01,,,0.06,meteohub,2013-05-23 04:15:00,
2013-05-22 21:20:00,46.2,46.0,29.44,SW,225,2.0,2.0,99,0.01,,,0.06,meteohub,2013-05-23 04:20:00,
2013-05-22 21:25:00,46.0,45.9,29.44,SE,135,2.0,3.0,99,0.01,,,0.06,meteohub,2013-05-23 04:25:00,
2013-05-22 21:30:00,45.9,45.7,29.44,SE,135,2.0,4.0,99,0.01,,,0.06,meteohub,2013-05-23 04:30:00,
2013-05-22 21:35:00,45.9,45.7,29.44,SE,135,2.0,4.0,99,0.01,,,0.06,meteohub,2013-05-23 04:35:00,
2013-05-22 21:40:00,45.9,45.7,29.44,South,180,2.0,4.0,99,0.01,,,0.06,meteohub,2013-05-23 04:40:00,
2013-05-22 21:45:00,45.7,45.5,29.44,South,180,1.0,2.0,99,0.01,,,0.06,meteohub,2013-05-23 04:45:00,
2013-05-22 21:50:00,45.7,45.5,29.45,SW,225,2.0,2.0,99,0.00,,,0.06,meteohub,2013-05-23 04:50:00,
2013-05-22 21:55:00,45.5,45.3,29.44,SW,225,2.0,2.0,99,0.00,,,0.06,meteohub,2013-05-23 04:55:00,
2013-05-22 22:00:00,45.3,45.1,29.45,South,180,2.0,2.0,99,0.00,,,0.06,meteohub,2013-05-23 05:00:00,
2013-05-22 22:05:00,45.3,45.1,29.45,SW,225,0.0,2.0,99,0.00,,,0.06,meteohub,2013-05-23 05:05:00,
2013-05-22 22:10:00,45.1,45.0,29.45,SW,225,1.0,2.0,99,0.00,,,0.06,meteohub,2013-05-23 05:10:00,
2013-05-22 22:15:00,45.1,45.0,29.45,SW,225,2.0,2.0,99,0.00,,,0.06,meteohub,2013-05-23 05:15:00,
2013-05-22 22:20:00,45.0,44.4,29.44,SE,135,2.0,2.0,98,0.00,,,0.06,meteohub,2013-05-23 05:20:00,
2013-05-22 22:25:00,45.0,44.8,29.44,South,180,0.0,2.0,99,0.00,,,0.06,meteohub,2013-05-23 05:25:00,
2013-05-22 22:30:00,45.0,44.4,29.44,South,180,1.0,2.0,98,0.00,,,0.06,meteohub,2013-05-23 05:30:00,
2013-05-22 22:36:00,45.0,44.8,29.44,NE,45,1.0,3.0,99,0.00,,,0.06,meteohub,2013-05-23 05:36:00,
2013-05-22 22:41:00,45.0,44.8,29.44,South,180,2.0,3.0,99,0.00,,,0.06,meteohub,2013-05-23 05:41:00,
2013-05-22 22:46:00,45.0,44.8,29.44,SE,135,3.0,3.0,99,0.00,,,0.06,meteohub,2013-05-23 05:46:00,
2013-05-22 22:51:00,45.0,44.8,29.45,West,270,2.0,4.0,99,0.00,,,0.06,meteohub,2013-05-23 05:51:00,
2013-05-22 22:56:00,45.0,44.8,29.44,SE,135,2.0,4.0,99,0.00,,,0.06,meteohub,2013-05-23 05:56:00,
2013-05-22 23:01:00,44.8,44.6,29.44,South,180,2.0,4.0,99,0.00,,,0.06,meteohub,2013-05-23 06:01:00,
2013-05-22 23:06:00,44.8,44.6,29.44,South,180,2.0,3.0,99,0.00,,,0.06,meteohub,2013-05-23 06:06:00,
2013-05-22 23:11:00,44.8,44.6,29.44,SW,225,2.0,4.0,99,0.00,,,0.06,meteohub,2013-05-23 06:11:00,
2013-05-22 23:16:00,44.8,44.6,29.44,SE,135,2.0,4.0,99,0.00,,,0.06,meteohub,2013-05-23 06:16:00,
2013-05-22 23:21:00,44.8,44.6,29.44,NW,315,1.0,4.0,99,0.00,,,0.06,meteohub,2013-05-23 06:21:00,
2013-05-22 23:26:00,44.8,44.6,29.44,SE,135,2.0,4.0,99,0.00,,,0.06,meteohub,2013-05-23 06:26:00,
2013-05-22 23:31:00,44.8,44.6,29.44,SW,225,4.0,4.0,99,0.00,,,0.06,meteohub,2013-05-23 06:31:00,
2013-05-22 23:36:00,44.8,44.6,29.44,South,180,2.0,4.0,99,0.00,,,0.06,meteohub,2013-05-23 06:36:00,
2013-05-22 23:41:00,44.8,44.6,29.44,SE,135,3.0,4.0,99,0.00,,,0.06,meteohub,2013-05-23 06:41:00,
2013-05-22 23:46:00,44.8,44.6,29.44,SE,135,2.0,6.0,99,0.00,,,0.06,meteohub,2013-05-23 06:46:00,
2013-05-22 23:51:00,44.6,44.4,29.44,SW,225,2.0,6.0,99,0.00,,,0.06,meteohub,2013-05-23 06:51:00,
2013-05-22 23:56:00,44.6,44.4,29.44,SE,135,3.0,6.0,99,0.00,,,0.06,meteohub,2013-05-23 06:56:00,